Meteo Giornale » Osservazioni meteo Stati Uniti (USA) » Hatteras Mitchell Fld
ore: 21:51 - Osservazioni Meteo Hatteras Mitchell Fld
Lat. 35° 13' N Lon. 75° 37' W Alt. 5 metri s.l.m.
24 °C
Sereno
Temp. 24 Ore
23 °C
31 °C
Nord
0 Km/h
Dew point 23 °C
Umidità 94 %
Visibilità 10 Km
Il sole sorge alle ore 06:34
Il sole tramonta alle ore 19:31
| Data e Ora | Cielo e Fenomeni | T °C | DP °C | Um. % | Pres. hPa | Vis. km | Vento km/h | |
|---|---|---|---|---|---|---|---|---|
| Oggi h: 21:51 | Sereno | 24 | 23 | 94 | 1019 | 10 | N 0 | |
| Oggi h: 20:51 | Sereno | 26 | 23 | 83 | 1018 | 10 | SE 7.4 | |
| Oggi h: 19:51 | Sereno | 26 | 23 | 83 | 1018 | 10 | E/SE 7.4 | |
| Oggi h: 18:51 | Sereno | 28 | 23 | 74 | 1018 | 10 | E/SE 9.3 | |
| Oggi h: 17:51 | Sereno | 29 | 23 | 70 | 1018 | 10 | E/SE 11.1 | |
| Oggi h: 16:51 | Sereno | 29 | 23 | 70 | 1018 | 10 | SE 9.3 | |
| Oggi h: 15:51 | Sereno | 31 | 23 | 62 | 1018 | 10 | N 7.4 | |
| Oggi h: 14:51 | Sereno | 31 | 22 | 58 | 1019 | 10 | SE 9.3 | |
| Oggi h: 14:34 | Nuvoloso | 30 | 22 | 62 | 1019 | 10 | S/SE 7.4 | |
| Oggi h: 13:59 | Molto Nuvoloso | 31 | 23 | 62 | 1019 | 10 | SE 9.3 | |
| Oggi h: 13:51 | Nuvoloso | 31 | 23 | 62 | 1019 | 13 | N 5.5 | |
| Oggi h: 13:48 | Nuvoloso | 31 | 23 | 62 | 1019 | 13 | N 7.4 | |
| Oggi h: 13:08 | Molto Nuvoloso | 29 | 23 | 70 | 1020 | 10 | SE 9.3 | |
| Oggi h: 12:51 | Poco Nuvoloso | 29 | 22 | 66 | 1020 | 10 | E 7.4 | |
| Oggi h: 11:51 | Sereno | 29 | 22 | 66 | 1020 | 10 | N 7.4 | |
| Oggi h: 10:51 | Sereno | 29 | 23 | 70 | 1020 | 10 | N 7.4 | |
| Oggi h: 09:51 | Sereno | 28 | 23 | 74 | 1019 | 10 | N 5.5 | |
| Oggi h: 09:09 | Poco Nuvoloso | 28 | 24 | 78 | 1019 | 10 | N 5.5 | |
| Oggi h: 09:01 | Molto Nuvoloso | 28 | 24 | 78 | 1019 | 10 | N 7.4 | |
| Oggi h: 08:51 | Nuvoloso | 28 | 24 | 78 | 1019 | 10 | N 5.5 | |
| Oggi h: 08:28 | Molto Nuvoloso | 27 | 24 | 83 | 1019 | 10 | N 0 | |
| Oggi h: 07:51 | Sereno | 27 | 24 | 83 | 1019 | 10 | N 0 | |
| Oggi h: 06:51 | Poco Nuvoloso | 26 | 24 | 88 | 1019 | 10 | N 5.5 | |
| Oggi h: 05:51 | Sereno | 24 | 23 | 94 | 1019 | 10 | N 5.5 | |
| Oggi h: 04:51 | Sereno | 23 | 23 | 100 | 1018 | 10 | N 5.5 | |
| Oggi h: 03:51 | Sereno | 24 | 23 | 94 | 1018 | 10 | N 0 | |
| Oggi h: 02:51 | Sereno | 24 | 23 | 94 | 1019 | 10 | N 5.5 | |
| Oggi h: 01:51 | Sereno | 23 | 23 | 100 | 1019 | 14 | N 0 | |
| Oggi h: 00:51 | Sereno | 24 | 23 | 94 | 1020 | 10 | N 0 | |
| Ieri h: 23:51 | Sereno | 24 | 23 | 94 | 1020 | 10 | N 0 | |
| Ieri h: 22:51 | Sereno | 24 | 23 | 94 | 1020 | 10 | N 0 | |



